| time (UTC) | temp F | wind direction | speed MPH | gust MPH | rain 1hr in | rain 24hr in | rain mn in | humidity % | barometer mb |
| 20260503234749 | 57 | 333 | 2.0 | 3.0 | 0.00 | 0.00 | 0.00 | 88 | 1012.3 |
| 20260503234249 | 57 | 326 | 1.0 | 2.0 | 0.00 | 0.00 | 0.00 | 88 | 1012.2 |
| 20260503233749 | 57 | 325 | 0.0 | 1.0 | 0.00 | 0.00 | 0.00 | 88 | 1012.4 |
| 20260503233248 | 57 | 323 | 0.0 | 2.0 | 0.00 | 0.00 | 0.00 | 88 | 1012.4 |
| 20260503232748 | 57 | 323 | 2.0 | 2.0 | 0.00 | 0.00 | 0.00 | 86 | 1012.3 |
| 20260503232305 | 57 | 303 | 0.0 | 2.0 | 0.00 | 0.00 | 0.00 | 86 | 1012.2 |
| 20260503231752 | 57 | 304 | 1.0 | 2.0 | 0.00 | 0.00 | 0.00 | 85 | 1012.3 |
| 20260503231252 | 57 | 305 | 1.0 | 2.0 | 0.00 | 0.00 | 0.00 | 85 | 1012.3 |
| 20260503230751 | 57 | 321 | 1.0 | 2.0 | 0.00 | 0.00 | 0.00 | 85 | 1012.3 |
| 20260503230251 | 57 | 324 | 1.0 | 2.0 | 0.00 | 0.00 | 0.00 | 84 | 1012.2 |
| 20260503225805 | 57 | 322 | 0.0 | 1.0 | 0.00 | 0.00 | 0.00 | 84 | 1012.2 |
| 20260503225305 | 58 | 322 | 1.0 | 2.0 | 0.00 | 0.00 | 0.00 | 84 | 1012.2 |
| 20260503224755 | 58 | 323 | 1.0 | 2.0 | 0.00 | 0.00 | 0.00 | 84 | 1012.0 |
| 20260503224310 | 58 | 303 | 0.0 | 1.0 | 0.00 | 0.00 | 0.00 | 84 | 1012.0 |
| 20260503223759 | 58 | 305 | 1.0 | 2.0 | 0.00 | 0.00 | 0.00 | 84 | 1012.2 |
| 20260503223259 | 58 | 301 | 1.0 | 2.0 | 0.00 | 0.00 | 0.00 | 84 | 1011.9 |
| 20260503222758 | 58 | 311 | 0.0 | 2.0 | 0.00 | 0.00 | 0.00 | 84 | 1012.0 |
| 20260503222258 | 58 | 306 | 2.0 | 3.0 | 0.00 | 0.00 | 0.00 | 84 | 1012.1 |
| 20260503221758 | 58 | 291 | 0.0 | 2.0 | 0.00 | 0.00 | 0.00 | 84 | 1012.0 |
| 20260503221257 | 58 | 291 | 1.0 | 2.0 | 0.00 | 0.00 | 0.00 | 83 | 1011.9 |
| 20260503220757 | 58 | 279 | 1.0 | 2.0 | 0.00 | 0.00 | 0.00 | 83 | 1011.9 |
| 20260503220257 | 58 | 268 | 1.0 | 2.0 | 0.00 | 0.00 | 0.00 | 83 | 1011.9 |
| 20260503215756 | 58 | 267 | 1.0 | 2.0 | 0.00 | 0.00 | 0.00 | 83 | 1011.8 |
| 20260503215311 | 58 | 280 | 2.0 | 3.0 | 0.00 | 0.00 | 0.00 | 82 | 1012.0 |
| 20260503214815 | 58 | 270 | 0.0 | 1.0 | 0.00 | 0.00 | 0.00 | 82 | 1011.7 |
| 20260503214305 | 58 | 270 | 2.0 | 3.0 | 0.00 | 0.00 | 0.00 | 82 | 1011.7 |
| 20260503213805 | 59 | 268 | 1.0 | 2.0 | 0.00 | 0.00 | 0.00 | 82 | 1011.7 |
| 20260503213304 | 59 | 262 | 1.0 | 2.0 | 0.00 | 0.00 | 0.00 | 81 | 1011.6 |
| 20260503212804 | 59 | 258 | 2.0 | 4.0 | 0.00 | 0.00 | 0.00 | 81 | 1011.6 |
| 20260503212304 | 59 | 259 | 2.0 | 3.0 | 0.00 | 0.00 | 0.00 | 81 | 1011.6 |
| 20260503211803 | 59 | 256 | 3.0 | 4.0 | 0.00 | 0.00 | 0.00 | 80 | 1011.6 |
| 20260503211302 | 59 | 244 | 1.0 | 2.0 | 0.00 | 0.00 | 0.00 | 78 | 1011.5 |
| 20260503210802 | 59 | 248 | 2.0 | 4.0 | 0.00 | 0.00 | 0.00 | 77 | 1011.4 |
| 20260503210301 | 59 | 267 | 2.0 | 3.0 | 0.00 | 0.00 | 0.00 | 77 | 1011.5 |
| 20260503205801 | 59 | 286 | 2.0 | 3.0 | 0.00 | 0.00 | 0.00 | 76 | 1011.3 |
| 20260503205301 | 59 | 270 | 2.0 | 3.0 | 0.00 | 0.00 | 0.00 | 76 | 1011.5 |
| 20260503204800 | 60 | 270 | 1.0 | 2.0 | 0.00 | 0.00 | 0.00 | 75 | 1011.3 |
| 20260503204315 | 60 | 270 | 0.0 | 2.0 | 0.00 | 0.00 | 0.00 | 75 | 1011.1 |
| 20260503203805 | 60 | 268 | 2.0 | 2.0 | 0.00 | 0.00 | 0.00 | 74 | 1011.2 |
| 20260503203254 | 60 | 267 | 2.0 | 3.0 | 0.00 | 0.00 | 0.00 | 74 | 1011.1 |
| 20260503202754 | 60 | 257 | 0.0 | 1.0 | 0.00 | 0.00 | 0.00 | 74 | 1011.2 |
| 20260503202253 | 60 | 257 | 0.0 | 1.0 | 0.00 | 0.00 | 0.00 | 74 | 1011.1 |
| 20260503201752 | 60 | 257 | 0.0 | 2.0 | 0.00 | 0.00 | 0.00 | 73 | 1010.9 |
| 20260503201252 | 60 | 259 | 1.0 | 2.0 | 0.00 | 0.00 | 0.00 | 73 | 1010.8 |
| 20260503200806 | 60 | 255 | 1.0 | 2.0 | 0.00 | 0.00 | 0.00 | 73 | 1010.6 |
| 20260503200256 | 60 | 253 | 0.0 | 1.0 | 0.00 | 0.00 | 0.00 | 73 | 1010.7 |
| 20260503195755 | 60 | 239 | 0.0 | 1.0 | 0.00 | 0.00 | 0.00 | 72 | 1010.6 |
| 20260503195255 | 60 | 239 | 0.0 | 1.0 | 0.00 | 0.00 | 0.00 | 72 | 1010.5 |
| 20260503194755 | 60 | 239 | 1.0 | 2.0 | 0.00 | 0.00 | 0.00 | 72 | 1010.6 |
| 20260503194255 | 61 | 231 | 2.0 | 3.0 | 0.00 | 0.00 | 0.00 | 70 | 1010.4 |
| 20260503193754 | 61 | 246 | 1.0 | 3.0 | 0.00 | 0.00 | 0.00 | 70 | 1010.2 |
| 20260503193309 | 61 | 238 | 2.0 | 2.0 | 0.00 | 0.00 | 0.00 | 70 | 1010.2 |
| 20260503192814 | 62 | 290 | 1.0 | 2.0 | 0.00 | 0.00 | 0.00 | 70 | 1010.3 |
| 20260503192305 | 62 | 299 | 0.0 | 1.0 | 0.00 | 0.00 | 0.00 | 70 | 1010.2 |
| 20260503191802 | 62 | 301 | 0.0 | 1.0 | 0.00 | 0.00 | 0.00 | 70 | 1010.0 |
| 20260503191302 | 62 | 299 | 2.0 | 2.0 | 0.00 | 0.00 | 0.00 | 70 | 1009.9 |
| 20260503190801 | 62 | 307 | 2.0 | 3.0 | 0.00 | 0.00 | 0.00 | 69 | 1010.2 |
| 20260503190301 | 62 | 298 | 3.0 | 4.0 | 0.00 | 0.00 | 0.00 | 69 | 1010.2 |
| 20260503185816 | 63 | 277 | 2.0 | 3.0 | 0.00 | 0.00 | 0.00 | 68 | 1010.2 |
| 20260503185305 | 63 | 256 | 1.0 | 2.0 | 0.00 | 0.02 | 0.00 | 67 | 1010.1 |
| 20260503184805 | 63 | 241 | 1.0 | 4.0 | 0.00 | 0.02 | 0.00 | 66 | 1009.8 |
| 20260503184304 | 64 | 247 | 1.0 | 2.0 | 0.00 | 0.02 | 0.00 | 65 | 1010.0 |
| 20260503183804 | 64 | 248 | 2.0 | 2.0 | 0.00 | 0.02 | 0.00 | 65 | 1009.6 |
| 20260503183254 | 64 | 263 | 1.0 | 2.0 | 0.00 | 0.02 | 0.00 | 64 | 1009.8 |
| 20260503182753 | 65 | 262 | 2.0 | 3.0 | 0.00 | 0.02 | 0.00 | 64 | 1009.6 |
| 20260503182308 | 65 | 255 | 0.0 | 2.0 | 0.00 | 0.02 | 0.00 | 64 | 1009.6 |
| 20260503181757 | 65 | 253 | 1.0 | 2.0 | 0.00 | 0.02 | 0.00 | 64 | 1009.7 |
| 20260503181257 | 65 | 250 | 2.0 | 3.0 | 0.00 | 0.02 | 0.00 | 64 | 1009.6 |
| 20260503180756 | 65 | 260 | 2.0 | 4.0 | 0.00 | 0.02 | 0.00 | 63 | 1009.6 |
| 20260503180256 | 65 | 247 | 0.0 | 2.0 | 0.00 | 0.02 | 0.00 | 62 | 1009.6 |
| 20260503175756 | 66 | 252 | 2.0 | 2.0 | 0.00 | 0.02 | 0.00 | 61 | 1009.7 |
| 20260503175310 | 67 | 257 | 1.0 | 3.0 | 0.00 | 0.02 | 0.00 | 61 | 1009.4 |
| 20260503174754 | 66 | 264 | 1.0 | 2.0 | 0.00 | 0.02 | 0.00 | 61 | 1009.5 |
| 20260503174254 | 66 | 263 | 2.0 | 2.0 | 0.00 | 0.02 | 0.00 | 62 | 1009.3 |
| 20260503173808 | 65 | 278 | 1.0 | 2.0 | 0.00 | 0.02 | 0.00 | 63 | 1009.3 |
| 20260503173258 | 65 | 285 | 2.0 | 4.0 | 0.00 | 0.02 | 0.00 | 62 | 1009.1 |
| 20260503172757 | 66 | 282 | 3.0 | 4.0 | 0.00 | 0.02 | 0.00 | 62 | 1009.3 |
| 20260503172257 | 66 | 249 | 2.0 | 2.0 | 0.00 | 0.02 | 0.00 | 60 | 1009.2 |
| 20260503171756 | 67 | 245 | 1.0 | 2.0 | 0.00 | 0.02 | 0.00 | 58 | 1009.4 |
| 20260503171257 | 69 | 244 | 2.0 | 2.0 | 0.00 | 0.02 | 0.00 | 55 | 1009.3 |
| 20260503170756 | 71 | 236 | 0.0 | 1.0 | 0.00 | 0.02 | 0.00 | 51 | 1009.5 |
| 20260503170256 | 74 | 236 | 3.0 | 4.0 | 0.00 | 0.02 | 0.00 | 49 | 1009.4 |
| 20260503150753 | 69 | 279 | 2.0 | 4.0 | 0.00 | 0.19 | 0.00 | 55 | 1009.7 |
| 20260503150252 | 68 | 259 | 1.0 | 2.0 | 0.00 | 0.19 | 0.00 | 56 | 1009.7 |
| 20260503140302 | 65 | 226 | 3.0 | 4.0 | 0.00 | 0.19 | 0.00 | 60 | 1010.0 |
| 20260503131304 | 68 | 247 | 1.0 | 2.0 | 0.00 | 0.19 | 0.00 | 54 | 1010.2 |
| 20260503130804 | 68 | 233 | 3.0 | 6.0 | 0.00 | 0.19 | 0.00 | 52 | 1010.2 |
| 20260503130253 | 69 | 240 | 2.0 | 4.0 | 0.00 | 0.19 | 0.00 | 52 | 1010.2 |
| 20260503110752 | 68 | 279 | 2.0 | 3.0 | 0.00 | 0.19 | 0.00 | 54 | 1010.4 |
| 20260503110252 | 68 | 274 | 2.0 | 3.0 | 0.00 | 0.19 | 0.00 | 55 | 1010.3 |
| 20260503100256 | 62 | 271 | 0.0 | 1.0 | 0.00 | 0.19 | 0.00 | 68 | 1010.7 |
| 20260503090300 | 60 | 266 | 1.0 | 2.0 | 0.00 | 0.19 | 0.00 | 74 | 1010.9 |
| 20260503081256 | 57 | 315 | 2.0 | 2.0 | 0.00 | 0.19 | 0.00 | 84 | 1010.6 |
| 20260503080755 | 58 | 315 | 1.0 | 2.0 | 0.00 | 0.19 | 0.00 | 86 | 1010.7 |
| 20260503080255 | 58 | 315 | 2.0 | 2.0 | 0.00 | 0.19 | 0.00 | 88 | 1010.6 |
| 20260503072756 | 56 | 293 | 2.0 | 2.0 | 0.00 | 0.19 | 0.00 | 96 | 1010.5 |
| 20260503072255 | 56 | 272 | 0.0 | 2.0 | 0.00 | 0.19 | 0.00 | 96 | 1010.4 |
| 20260503071755 | 56 | 275 | 1.0 | 2.0 | 0.00 | 0.19 | 0.00 | 96 | 1010.4 |
| 20260503071254 | 56 | 270 | 1.0 | 3.0 | 0.00 | 0.19 | 0.00 | 96 | 1010.5 |
| 20260503070754 | 56 | 258 | 2.0 | 2.0 | 0.00 | 0.19 | 0.00 | 96 | 1010.5 |
| 20260503070253 | 56 | 280 | 2.0 | 3.0 | 0.00 | 0.19 | 0.00 | 96 | 1010.3 |
| 20260503060258 | 54 | 241 | 0.0 | 1.0 | 0.00 | 0.19 | 0.00 | 96 | 1010.2 |
| 20260503054302 | 54 | 254 | 1.0 | 2.0 | 0.00 | 0.19 | 0.00 | 96 | 1010.0 |
| 20260503053802 | 54 | 254 | 2.0 | 3.0 | 0.00 | 0.19 | 0.00 | 96 | 1010.1 |
| 20260503053301 | 54 | 247 | 1.0 | 2.0 | 0.00 | 0.19 | 0.00 | 96 | 1010.0 |
| 20260503052801 | 54 | 245 | 2.0 | 3.0 | 0.00 | 0.19 | 0.00 | 96 | 1010.0 |
| 20260503052300 | 54 | 258 | 2.0 | 2.0 | 0.00 | 0.19 | 0.00 | 96 | 1010.0 |
| 20260503051800 | 54 | 285 | 1.0 | 3.0 | 0.00 | 0.19 | 0.00 | 96 | 1009.9 |
| 20260503051300 | 53 | 291 | 1.0 | 2.0 | 0.00 | 0.19 | 0.00 | 97 | 1010.0 |
| 20260503050800 | 53 | 281 | 2.0 | 2.0 | 0.00 | 0.19 | 0.00 | 97 | 1009.8 |
| 20260503050259 | 53 | 315 | 1.0 | 2.0 | 0.00 | 0.19 | 0.00 | 97 | 1010.0 |
| 20260503045758 | 53 | 180 | 0.0 | 1.0 | 0.00 | 0.19 | 0.00 | 97 | 1009.9 |
| 20260503045313 | 53 | 180 | 0.0 | 1.0 | 0.00 | 0.19 | 0.00 | 97 | 1009.9 |
| 20260503044802 | 53 | 180 | 0.0 | 2.0 | 0.00 | 0.19 | 0.00 | 97 | 1010.0 |
| 20260503044302 | 53 | 180 | 0.0 | 0.0 | 0.00 | 0.19 | 0.00 | 96 | 1009.8 |
| 20260503043801 | 53 | 180 | 0.0 | 0.0 | 0.00 | 0.19 | 0.00 | 96 | 1009.9 |
| 20260503043301 | 53 | 180 | 0.0 | 1.0 | 0.00 | 0.19 | 0.00 | 96 | 1009.8 |
| 20260503042800 | 53 | 180 | 0.0 | 1.0 | 0.00 | 0.19 | 0.00 | 96 | 1009.8 |
| 20260503042259 | 53 | 180 | 0.0 | 1.0 | 0.00 | 0.19 | 0.00 | 96 | 1009.7 |
| 20260503041759 | 53 | 180 | 0.0 | 0.0 | 0.00 | 0.19 | 0.00 | 96 | 1009.6 |
| 20260503041258 | 53 | 180 | 0.0 | 1.0 | 0.00 | 0.19 | 0.00 | 96 | 1009.8 |
| 20260503040758 | 53 | 180 | 0.0 | 1.0 | 0.00 | 0.19 | 0.00 | 96 | 1009.9 |
| 20260503040257 | 53 | 180 | 0.0 | 1.0 | 0.00 | 0.19 | 0.00 | 96 | 1009.9 |
| 20260503035757 | 53 | 315 | 0.0 | 0.0 | 0.00 | 0.19 | 0.00 | 96 | 1009.9 |
| 20260503035256 | 53 | 345 | 0.0 | 0.0 | 0.00 | 0.19 | 0.00 | 96 | 1009.8 |
| 20260503034811 | 53 | 345 | 0.0 | 0.0 | 0.00 | 0.19 | 0.00 | 96 | 1009.9 |
| 20260503034300 | 53 | 345 | 0.0 | 0.0 | 0.00 | 0.19 | 0.00 | 96 | 1009.9 |
| 20260503033815 | 53 | 341 | 0.0 | 0.0 | 0.00 | 0.19 | 0.00 | 96 | 1009.8 |
| 20260503033305 | 53 | 335 | 1.0 | 2.0 | 0.00 | 0.19 | 0.00 | 96 | 1009.9 |
| 20260503032804 | 53 | 344 | 2.0 | 2.0 | 0.00 | 0.19 | 0.00 | 96 | 1010.0 |
| 20260503032304 | 53 | 295 | 0.0 | 1.0 | 0.00 | 0.19 | 0.00 | 96 | 1009.9 |
| 20260503031803 | 54 | 295 | 0.0 | 1.0 | 0.00 | 0.19 | 0.00 | 95 | 1009.8 |
| 20260503031303 | 54 | 295 | 1.0 | 2.0 | 0.00 | 0.19 | 0.00 | 95 | 1010.0 |
| 20260503030802 | 54 | 270 | 1.0 | 2.0 | 0.00 | 0.19 | 0.00 | 94 | 1010.1 |
| 20260503030252 | 54 | 225 | 0.0 | 0.0 | 0.00 | 0.19 | 0.00 | 94 | 1010.0 |
| 20260503025751 | 54 | 225 | 0.0 | 1.0 | 0.00 | 0.19 | 0.00 | 94 | 1009.9 |
| 20260503025306 | 54 | 225 | 0.0 | 0.0 | 0.00 | 0.19 | 0.00 | 94 | 1010.0 |
| 20260503024806 | 53 | 225 | 0.0 | 1.0 | 0.00 | 0.19 | 0.00 | 95 | 1010.0 |
| 20260503024305 | 53 | 225 | 0.0 | 1.0 | 0.00 | 0.19 | 0.00 | 95 | 1009.7 |
| 20260503023805 | 53 | 225 | 1.0 | 2.0 | 0.00 | 0.19 | 0.00 | 95 | 1010.0 |
| 20260503023305 | 53 | 180 | 0.0 | 2.0 | 0.00 | 0.19 | 0.00 | 95 | 1010.0 |
| 20260503022804 | 53 | 180 | 0.0 | 1.0 | 0.00 | 0.19 | 0.00 | 95 | 1010.1 |
| 20260503022305 | 53 | 180 | 0.0 | 0.0 | 0.00 | 0.19 | 0.00 | 95 | 1009.9 |
| 20260503021803 | 53 | 180 | 0.0 | 0.0 | 0.00 | 0.19 | 0.00 | 95 | 1010.1 |
| 20260503021303 | 53 | 180 | 0.0 | 0.0 | 0.00 | 0.19 | 0.00 | 95 | 1009.9 |
| 20260503020802 | 53 | 180 | 0.0 | 0.0 | 0.00 | 0.19 | 0.00 | 95 | 1010.0 |
| 20260503020302 | 53 | 180 | 0.0 | 0.0 | 0.00 | 0.19 | 0.00 | 95 | 1010.0 |
| 20260503015802 | 53 | 180 | 0.0 | 1.0 | 0.00 | 0.19 | 0.00 | 95 | 1010.1 |
| 20260503015301 | 53 | 180 | 0.0 | 0.0 | 0.00 | 0.19 | 0.00 | 95 | 1010.1 |
| 20260503014801 | 54 | 180 | 0.0 | 0.0 | 0.00 | 0.19 | 0.00 | 94 | 1010.3 |
| 20260503014301 | 54 | 360 | 0.0 | 0.0 | 0.00 | 0.19 | 0.00 | 94 | 1010.1 |
| 20260503013801 | 54 | 341 | 0.0 | 0.0 | 0.00 | 0.19 | 0.00 | 94 | 1010.3 |
| 20260503013315 | 54 | 326 | 0.0 | 1.0 | 0.00 | 0.19 | 0.00 | 94 | 1010.2 |
| 20260503012805 | 55 | 317 | 0.0 | 1.0 | 0.00 | 0.19 | 0.00 | 94 | 1010.2 |
| 20260503012305 | 55 | 308 | 0.0 | 1.0 | 0.00 | 0.19 | 0.00 | 94 | 1010.4 |
| 20260503011804 | 55 | 301 | 2.0 | 4.0 | 0.00 | 0.19 | 0.00 | 95 | 1010.5 |
| 20260503011303 | 55 | 245 | 1.0 | 2.0 | 0.00 | 0.19 | 0.00 | 95 | 1010.3 |
| 20260503010803 | 55 | 235 | 1.0 | 2.0 | 0.00 | 0.19 | 0.00 | 95 | 1010.5 |
| 20260503010303 | 55 | 240 | 1.0 | 2.0 | 0.00 | 0.19 | 0.00 | 95 | 1010.7 |
| 20260503005802 | 55 | 225 | 1.0 | 2.0 | 0.00 | 0.19 | 0.00 | 95 | 1010.7 |
| 20260503005304 | 56 | 235 | 1.0 | 2.0 | 0.00 | 0.19 | 0.00 | 95 | 1010.8 |
| 20260503004801 | 56 | 247 | 1.0 | 2.0 | 0.00 | 0.19 | 0.00 | 95 | 1010.9 |
| 20260503004301 | 56 | 275 | 0.0 | 1.0 | 0.00 | 0.19 | 0.00 | 95 | 1010.9 |
| 20260503003800 | 56 | 275 | 0.0 | 2.0 | 0.00 | 0.19 | 0.00 | 95 | 1010.9 |
| 20260503003259 | 56 | 275 | 0.0 | 2.0 | 0.00 | 0.19 | 0.00 | 95 | 1010.9 |
| 20260503002758 | 56 | 260 | 1.0 | 2.0 | 0.00 | 0.19 | 0.00 | 96 | 1011.0 |
| 20260503002258 | 56 | 232 | 0.0 | 2.0 | 0.00 | 0.19 | 0.00 | 96 | 1011.0 |
| 20260503001812 | 56 | 241 | 1.0 | 2.0 | 0.00 | 0.19 | 0.00 | 96 | 1011.0 |
| 20260503001302 | 56 | 262 | 0.0 | 1.0 | 0.00 | 0.19 | 0.00 | 96 | 1011.0 |
| 20260503000801 | 56 | 262 | 0.0 | 1.0 | 0.00 | 0.19 | 0.00 | 96 | 1011.0 |
| 20260503000301 | 56 | 262 | 1.0 | 2.0 | 0.00 | 0.19 | 0.00 | 96 | 1011.1 |
| 20260502235800 | 56 | 275 | 2.0 | 3.0 | 0.00 | 0.19 | 0.00 | 96 | 1011.0 |
| 20260502235300 | 56 | 280 | 2.0 | 2.0 | 0.00 | 0.19 | 0.00 | 96 | 1011.2 |